Location: Dunedin
(45.8900°S, 170.5000°E)
Time: 12:20:18
(UTC+12:00)

ISS - Pass Details

Date: 21 April 2024
Orbit: 409 x 414 km, 51.6° (Epoch: 20 May)

Event Time Altitude Azimuth Distance (km) Brightness Sun altitude
Rises 20:11:10 0° 258° (WSW) 2,410 1.5 -25.0°
Reaches altitude 10° 20:13:27 10° 246° (WSW) 1,544 0.1 -25.4°
Enters shadow 20:15:27 25° 218° (SW) 935 -1.6 -25.8°
